TimeCST,TemperatureF,Dew PointF,Humidity,Sea Level PressureIn,VisibilityMPH,Wind Direction,Wind SpeedMPH,Gust SpeedMPH,PrecipitationIn,Events,Conditions,WindDirDegrees,DateUTC
6:00 AM,80,68,59,29.80,12,ENE,73.6,,,,Scattered Clouds,70,2012-12-29 12:00:00
6:00 AM,80.6,68.0,65,29.78,-9999.0,ENE,16.1,-,N/A,,Clear,70,2012-12-29 12:00:00
7:00 AM,82.4,68.0,62,29.80,-9999.0,ENE,18.4,-,N/A,,Clear,60,2012-12-29 13:00:00
7:45 AM,84.2,66.2,55,29.82,-9999.0,East,21.9,34.5,N/A,,Clear,80,2012-12-29 13:45:00
8:00 AM,84.2,66.2,55,29.82,-9999.0,ENE,21.9,-,N/A,,Clear,70,2012-12-29 14:00:00
9:00 AM,86.0,66.2,51,29.82,6.2,ENE,25.3,38.0,N/A,,Scattered Clouds,70,2012-12-29 15:00:00
10:00 AM,87.8,64.4,46,29.81,6.2,East,21.9,36.8,N/A,,Scattered Clouds,80,2012-12-29 16:00:00
11:00 AM,91.4,64.4,41,29.79,6.2,ENE,21.9,-,N/A,,Scattered Clouds,70,2012-12-29 17:00:00
12:00 PM,90,65,33,29.79,12,ENE,29.9,,,,Scattered Clouds,60,2012-12-29 18:00:00
12:00 PM,91.4,64.4,41,29.77,6.2,ENE,29.9,46.0,N/A,,Scattered Clouds,60,2012-12-29 18:00:00
1:00 PM,89.6,66.2,46,29.75,6.2,ENE,24.2,-,N/A,,Mostly Cloudy,70,2012-12-29 19:00:00
2:00 PM,91.4,66.2,43,29.72,-9999.0,ENE,25.3,38.0,N/A,,Clear,60,2012-12-29 20:00:00
3:00 PM,90,64,32,29.73,12,East,25.3,,,,Partly Cloudy,80,2012-12-29 21:00:00
3:00 PM,89.6,64.4,43,29.71,-9999.0,East,25.3,-,N/A,,Clear,80,2012-12-29 21:00:00
4:00 PM,89.6,62.6,40,29.71,-9999.0,ENE,21.9,33.4,N/A,,Clear,60,2012-12-29 22:00:00
5:00 PM,86.0,66.2,51,29.74,-9999.0,East,18.4,-,N/A,,Clear,80,2012-12-29 23:00:00
6:00 PM,84.2,66.2,55,29.77,-9999.0,NE,20.7,-,N/A,,Clear,50,2012-12-30 00:00:00
7:00 PM,82.4,66.2,58,29.79,-9999.0,East,19.6,-,N/A,,Clear,80,2012-12-30 01:00:00
7:22 PM,82.4,68.0,62,29.79,-9999.0,East,23.0,39.1,N/A,,Clear,80,2012-12-30 01:22:00
8:00 PM,82.4,66.2,58,29.81,-9999.0,ENE,28.8,42.6,N/A,,Clear,70,2012-12-30 02:00:00